THOR ABLESTAR DEB, 48813

Orbit data source: Space-Track

THOR ABLESTAR DEB, 48813 is space debris in LEO originally from a launch on Thu, 29 Jun 1961 UTC launched from the Air Force Eastern Test Range (AFETR). Debris objects in space refer to the collection of defunct objects orbiting the Earth. Examples of debris include non-operational satellites, rocket bodies, and fragments generated from explosions, collisions, or faulty payload assembly.

Loading next visibility...
Identifier
48813, 1961-015MR
Orbit
LEO
Country
Flag of USUS
Related business
Manufacturer
Unknown
Mission
Spacecraft
Bus & Motor
Unknown
Mass
Unknown
Launch date (UTC)
1961-06-29 (65 years ago)
Launch vehicle
Unknown
Launch site
Air Force Eastern Test Range (AFETR)
Object type
Payload
Rocket body
Debris
Shape & HBR
Unknown shape, 0.1 m
Radar Cross Section
Small (<0.1 m²)

Expand to show TLE details & history
Last TLE update: 2 days ago

TLE from 2 days ago
0 THOR ABLESTAR DEB
1 48813U 61015MR  26071.41127196  .00001182  00000-0  19481-2 0  9991
2 48813  66.6451 327.3229 0462284 335.4875  22.4791 13.14694241588352
Epoch: 2026-03-12T09:52Z
TLE epoch observation values (Epoch: 2026-03-12T09:52:13.897Z)
Latitude
-0.00005°
Longitude
9.20343°
Altitude
885.628 km
Speed
7.565 km/s
True Right ascension
21h 49m 17s
True Declination
0° 00' 00"
Sunlit
Object was in daylight at epoch
Visualization orbit readout
Latitude
Unknown
Longitude
Unknown
Altitude
Unknown
Speed
Unknown
Apparent Right ascension
Unknown
Apparent Declination
Unknown
Sunlit
N/A
Visualization observer readout
Local Sidereal Time
10:08:13
Azimuth
Unknown
Elevation
Unknown
Doppler factor
Unknown
Orbital elements
Apogee altitude
1,554.007 km
Perigee altitude
853.031 km
Semi-major axis
7,581.656 km
Eccentricity
0.04623
Inclination
66.6451°
RAAN
327.3229°
Arg. of periapsis
335.4875°
True anomaly
24.61801°
Mean anomaly
22.4791°
Eccentric anomaly
23.53682°
Mean motion
3.28774 °/min
Orbital period
109.5 mins
BSTAR
0.0019481
Loading maneuver chart data...
Computing Atmospheric mass density...

Documentation

Showing up to 5 results
|